Weather Roundup
Issued by NWS Springfield, MO

Home | Current Version | Previous Version | Text Only | Print | Product List | Glossary On
Versions: 1 2 3 4 5 6 7 8 9 10 11 12 13 14 15 16 17 18 19 20 21 22 23 24 25 26 27 28 29 30 31 32 33 34 35 36 37 38 39 40 41 42 43 44 45 46 47 48 49 50
886
NZUS99 KSGF 100207
HRRSGF

HOURLY WEATHER
NATIONAL WEATHER SERVICE SPRINGFIELD MO
800 PM CST TUE FEB 09 2016

......SGF CWA......

CITY           SKY/WX    TMP DP  RH WIND       PRES   REMARKS
SPRINGFIELD    CLEAR     26   4  38 NW15G23   30.18R WCI  14
JOPLIN         CLEAR     27   7  42 NW15      30.27R WCI  15
WEST PLAINS    CLEAR     26   7  44 NW13G21   30.12S WCI  15
ROLLA          CLEAR     20   9  62 NW14      30.11S WCI   7
OSAGE BEACH    CLEAR     25   5  42 NW7       30.18R WCI  17
BRANSON        CLEAR     28   3  34 NW14G23   30.18R WCI  17

......SURROUNDING SGF CWA......

CITY           SKY/WX    TMP DP  RH WIND       PRES   REMARKS
CHANUTE        PTCLDY    27   7  42 NW13      30.31R WCI  16
PARSONS        CLEAR     28   9  44 N14       30.32R WCI  17
COFFEYVILLE    CLEAR     30   9  41 N15       30.33R WCI  19
EMPORIA        PTCLDY    22   8  55 NW6       30.30S WCI  14
GROVE OK       CLEAR     32  12  43 N8G17     30.29R WCI  25
ROGERS AR      CLEAR     29   9  43 NW14G21   30.22R WCI  18
SILOAM SPRINGS CLEAR     30   7  37 N9        30.24R WCI  22
HARRISON AR    CLEAR     28   6  39 NW10      30.17R WCI  19
NEAR YELLVILLE CLEAR     30   7  37 NW12      30.16R WCI  21

......KANSAS AND MISSOURI......

CITY           SKY/WX    TMP DP  RH WIND       PRES   REMARKS
KANSAS CTY INT CLEAR     22   8  55 NW9       30.26R WCI  12
DOWNTOWN KC    CLEAR     25   7  46 NW9       30.27R WCI  15
COLUMBIA       CLEAR     20   8  60 W8        30.15R WCI  10
SEDALIA        CLEAR     22   7  52 NW14      30.20S WCI   9
ST JOSEPH      CLEAR     22   9  57 NW16      30.28S WCI   8
ST LOUIS       PTCLDY    24  10  55 NW9       30.10S WCI  14
SPIRIT OF STL  CLOUDY    26  12  55 W16G23    30.11R WCI  14
KIRKSVILLE     FLURRIES  18   3  52 NW17G35   30.16R WCI   3
WICHITA        CLOUDY    33  14  45 N9        30.32S WCI  25
TOPEKA         CLOUDY    25   7  46 NW6       30.30S WCI  18
OLATHE         CLEAR     23   5  46 NW10      30.26R WCI  12

......TENNESSEE......

CITY           SKY/WX    TMP DP  RH WIND       PRES   REMARKS
MEMPHIS        CLEAR     30  13  49 NW5       30.15S WCI  25
NASHVILLE      LGT SNOW  23  15  71 NW7       30.09R WCI  15

......ARKANSAS.......

CITY           SKY/WX    TMP DP  RH WIND       PRES   REMARKS
FAYETTEVILLE   CLEAR     29  10  45 NW9       30.22R WCI  20
FT SMITH       CLEAR     38  10  31 NW8       30.24S WCI  32
LITTLE ROCK    CLEAR     40   6  24 NW6       30.19R

......OKLAHOMA.......

CITY           SKY/WX    TMP DP  RH WIND       PRES   REMARKS
TULSA          MOCLDY    37  17  44 N13       30.29R WCI  29
PONCA CITY     CLOUDY    35  19  52 N9        30.32S WCI  28
MCALESTER      PTCLDY    41  18  39 NW6       30.28R
OKLAHOMA CITY  MOCLDY    41  19  41 N7        30.30R

......IOWA............

CITY           SKY/WX    TMP DP  RH WIND       PRES   REMARKS
DES MOINES     CLEAR     17   7  64 N13       30.18S WCI   4
QUAD CITIES    CLEAR     13   3  64 NW12G25   30.08R WCI  -1

......ILLINOIS........

CITY           SKY/WX    TMP DP  RH WIND       PRES   REMARKS
QUINCY         CLEAR     16   6  65 NW20G26   30.11R WCI  -1
CHICAGO        LGT SNOW  15   8  73 W13       29.94R WCI   1




USA.gov is the U.S. government's official web portal to all federal, state and local government web resources and services.